Location: Владивосток
(43.1151°N, 131.8856°E)
Time: 10:49:03
(UTC+10:00)

CAS-6 - Visible Passes

Search period start: 24 April 2024 00:00
Search period end: 04 May 2024 00:00
Orbit: 607 x 629 km, 97.8° (Epoch: 23 April)

Date Brightness Start Highest point End Pass type
(mag) Time Alt. Az. Time Alt. Az. Time Alt. Az.
24 Apr ? 22:01:02 13° ENE 22:01:09 13° ENE 22:03:09 10° NE visible
24 Apr ? 23:38:09 39° NNW 23:38:09 39° NNW 23:41:00 10° NNW visible
25 Apr ? 22:17:50 19° ENE 22:17:50 19° ENE 22:20:40 10° NNE visible
25 Apr ? 23:54:57 31° NW 23:54:57 31° NW 23:57:33 10° NNW visible
26 Apr ? 22:34:37 26° ENE 22:34:37 26° ENE 22:37:48 10° N visible
27 Apr ? 00:11:44 23° WNW 00:11:44 23° WNW 00:13:56 10° NW visible
27 Apr ? 22:51:24 37° NE 22:51:24 37° NE 22:54:47 10° N visible
28 Apr ? 00:28:31 16° WNW 00:28:31 16° WNW 00:30:06 10° NW visible
28 Apr ? 23:08:10 49° NNE 23:08:10 49° NNE 23:11:36 10° N visible
29 Apr ? 00:45:17 11° WNW 00:45:17 11° WNW 00:45:47 10° WNW visible
29 Apr ? 23:24:56 55° NNW 23:24:56 55° NNW 23:28:19 10° NNW visible
30 Apr ? 22:04:35 14° ENE 22:05:04 14° ENE 22:07:21 10° NNE visible
30 Apr ? 23:41:42 45° NW 23:41:42 45° NW 23:44:56 10° NNW visible
01 May ? 22:21:20 20° ENE 22:21:33 20° ENE 22:24:42 10° NNE visible
01 May ? 23:58:28 33° WNW 23:58:28 33° WNW 00:01:24 10° NNW visible
02 May ? 22:38:06 29° ENE 22:38:06 29° ENE 22:41:46 10° N visible
03 May ? 00:15:13 23° WNW 00:15:13 23° WNW 00:17:43 10° NW visible
03 May ? 22:54:50 42° ENE 22:54:50 42° ENE 22:58:40 10° N visible
